Previsão horária em Abdrahmanovo

Hoje, 18 Abril, Domingo

Tempo Temperatura Precipitação Vento Pressão Humidade
00:00 +7°C° 0 mm 3 m/s 744 mmHg 62%
01:00 +5°C° 0 mm 3 m/s 744 mmHg 64%
02:00 +5°C° 0 mm 3 m/s 744 mmHg 65%
03:00 +4°C° 0 mm 3 m/s 744 mmHg 66%
04:00 +4°C° 0 mm 3 m/s 744 mmHg 66%
05:00 +4°C° 0 mm 3 m/s 744 mmHg 65%
06:00 +4°C° 0 mm 3 m/s 744 mmHg 64%
07:00 +5°C° 0 mm 3 m/s 744 mmHg 63%
08:00 +6°C° 0 mm 4 m/s 744 mmHg 57%
09:00 +8°C° 0 mm 5 m/s 744 mmHg 51%
10:00 +9°C° 0 mm 5 m/s 744 mmHg 45%
11:00 +10°C° 0 mm 6 m/s 744 mmHg 43%
12:00 +11°C° 0 mm 6 m/s 744 mmHg 41%
13:00 +13°C° 0 mm 6 m/s 744 mmHg 39%
14:00 +13°C° 0 mm 6 m/s 744 mmHg 39%
15:00 +13°C° 0 mm 6 m/s 744 mmHg 39%
16:00 +13°C° 0 mm 6 m/s 744 mmHg 39%
17:00 +10°C° 0 mm 7 m/s 745 mmHg 47%
18:00 +9°C° 0 mm 7 m/s 745 mmHg 55%
19:00 +6°C° 0 mm 7 m/s 745 mmHg 63%
20:00 +5°C° 0 mm 7 m/s 745 mmHg 66%
21:00 +4°C° 0 mm 7 m/s 746 mmHg 69%
22:00 +3°C° 0 mm 6 m/s 746 mmHg 73%
23:00 +3°C° 0 mm 6 m/s 746 mmHg 68%

Amanhã, 19 Abril, Segunda-feira

Tempo Temperatura Precipitação Vento Pressão Humidade
00:00 +2°C° 0 mm 6 m/s 747 mmHg 64%
01:00 +2°C° 0 mm 5 m/s 747 mmHg 59%
02:00 +2°C° 0 mm 5 m/s 748 mmHg 57%
03:00 +1°C° 0 mm 5 m/s 748 mmHg 54%
04:00 +1°C° 0 mm 5 m/s 749 mmHg 51%
05:00 +1°C° 0 mm 6 m/s 749 mmHg 52%
06:00 -1°C° 0 mm 6 m/s 749 mmHg 52%
07:00 -1°C° 0 mm 6 m/s 750 mmHg 53%
08:00 -1°C° 0 mm 6 m/s 750 mmHg 49%
09:00 +1°C° 0 mm 6 m/s 750 mmHg 45%
10:00 +2°C° 0 mm 6 m/s 751 mmHg 40%
11:00 +2°C° 0 mm 6 m/s 751 mmHg 39%
12:00 +3°C° 0 mm 6 m/s 751 mmHg 37%
13:00 +4°C° 0 mm 6 m/s 751 mmHg 35%
14:00 +5°C° 0 mm 6 m/s 751 mmHg 33%
15:00 +5°C° 0 mm 6 m/s 751 mmHg 32%
16:00 +5°C° 0 mm 6 m/s 751 mmHg 30%
17:00 +5°C° 0 mm 5 m/s 751 mmHg 31%
18:00 +3°C° 0 mm 5 m/s 751 mmHg 31%
19:00 +3°C° 0 mm 5 m/s 751 mmHg 32%
20:00 +2°C° 0 mm 5 m/s 752 mmHg 35%
21:00 +1°C° 0 mm 5 m/s 753 mmHg 37%
22:00 -1°C° 0 mm 5 m/s 753 mmHg 39%
23:00 -1°C° 0 mm 4 m/s 753 mmHg 42%

Depois de amanhã, 20 Abril, Terça-feira

Tempo Temperatura Precipitação Vento Pressão Humidade
00:00 -2°C° 0 mm 4 m/s 754 mmHg 45%
01:00 -3°C° 0 mm 4 m/s 754 mmHg 47%
02:00 -2°C° 0 mm 3 m/s 754 mmHg 47%
03:00 -2°C° 0 mm 3 m/s 755 mmHg 48%
04:00 -2°C° 0 mm 3 m/s 755 mmHg 48%
05:00 -3°C° 0 mm 4 m/s 755 mmHg 44%
06:00 -2°C° 0 mm 4 m/s 755 mmHg 40%
07:00 -2°C° 0 mm 5 m/s 755 mmHg 37%
08:00 -1°C° 0 mm 4 m/s 756 mmHg 34%
09:00 0°C° 0 mm 4 m/s 756 mmHg 32%
10:00 +3°C° 0 mm 4 m/s 756 mmHg 29%
11:00 +4°C° 0 mm 4 m/s 756 mmHg 28%
12:00 +5°C° 0 mm 3 m/s 755 mmHg 27%
13:00 +7°C° 0 mm 3 m/s 755 mmHg 25%
14:00 +7°C° 0 mm 3 m/s 755 mmHg 25%
15:00 +8°C° 0 mm 3 m/s 755 mmHg 24%
16:00 +8°C° 0 mm 2 m/s 754 mmHg 23%
17:00 +8°C° 0 mm 2 m/s 754 mmHg 28%
18:00 +7°C° 0 mm 2 m/s 754 mmHg 32%
19:00 +6°C° 0 mm 2 m/s 754 mmHg 36%
20:00 +5°C° 0 mm 2 m/s 754 mmHg 37%
21:00 +5°C° 0 mm 2 m/s 754 mmHg 39%
22:00 +4°C° 0 mm 2 m/s 754 mmHg 40%
23:00 +3°C° 0 mm 2 m/s 754 mmHg 42%

21 Abril, Quarta-feira

Tempo Temperatura Precipitação Vento Pressão Humidade
00:00 +3°C° 0 mm 2 m/s 754 mmHg 44%
01:00 +2°C° 0 mm 2 m/s 754 mmHg 46%
02:00 +2°C° 0 mm 2 m/s 754 mmHg 46%
03:00 +1°C° 0 mm 2 m/s 754 mmHg 47%
04:00 +1°C° 0 mm 2 m/s 755 mmHg 48%
05:00 +1°C° 0 mm 2 m/s 755 mmHg 46%
06:00 +2°C° 0 mm 2 m/s 755 mmHg 45%
07:00 +2°C° 0 mm 2 m/s 756 mmHg 43%
08:00 +4°C° 0 mm 2 m/s 755 mmHg 39%
09:00 +5°C° 0 mm 2 m/s 755 mmHg 35%
10:00 +7°C° 0 mm 3 m/s 755 mmHg 32%
11:00 +8°C° 0 mm 3 m/s 755 mmHg 30%
12:00 +9°C° 0 mm 3 m/s 755 mmHg 29%
13:00 +10°C° 0 mm 3 m/s 755 mmHg 28%
14:00 +11°C° 0 mm 3 m/s 754 mmHg 27%
15:00 +11°C° 0 mm 3 m/s 754 mmHg 27%
16:00 +12°C° 0 mm 3 m/s 754 mmHg 26%
17:00 +11°C° 0 mm 3 m/s 754 mmHg 31%
18:00 +10°C° 0 mm 3 m/s 754 mmHg 35%
19:00 +10°C° 0 mm 2 m/s 754 mmHg 40%
20:00 +9°C° 0 mm 2 m/s 754 mmHg 42%
21:00 +8°C° 0 mm 2 m/s 754 mmHg 44%
22:00 +7°C° 0 mm 3 m/s 754 mmHg 46%
23:00 +5°C° 0 mm 3 m/s 754 mmHg 48%

22 Abril, Quinta-feira

Tempo Temperatura Precipitação Vento Pressão Humidade
00:00 +4°C° 0 mm 3 m/s 754 mmHg 51%
01:00 +4°C° 0 mm 3 m/s 755 mmHg 53%
02:00 +3°C° 0 mm 3 m/s 755 mmHg 54%
03:00 +3°C° 0 mm 3 m/s 755 mmHg 55%
04:00 +2°C° 0 mm 3 m/s 755 mmHg 57%
05:00 +3°C° 0 mm 4 m/s 755 mmHg 55%
06:00 +4°C° 0 mm 4 m/s 755 mmHg 53%
07:00 +4°C° 0 mm 4 m/s 755 mmHg 51%
08:00 +6°C° 0 mm 5 m/s 756 mmHg 46%
09:00 +7°C° 0 mm 6 m/s 756 mmHg 41%
10:00 +9°C° 0 mm 6 m/s 756 mmHg 36%
11:00 +9°C° 0 mm 6 m/s 756 mmHg 34%
12:00 +10°C° 0 mm 6 m/s 756 mmHg 33%
13:00 +11°C° 0 mm 6 m/s 756 mmHg 31%
14:00 +11°C° 0 mm 6 m/s 755 mmHg 31%
15:00 +11°C° 0 mm 6 m/s 755 mmHg 31%
16:00 +13°C° 0 mm 6 m/s 755 mmHg 30%
17:00 +12°C° 0 mm 5 m/s 755 mmHg 35%
18:00 +11°C° 0 mm 4 m/s 755 mmHg 39%
19:00 +10°C° 0 mm 3 m/s 755 mmHg 44%
20:00 +10°C° 0 mm 3 m/s 755 mmHg 46%
21:00 +9°C° 0 mm 3 m/s 755 mmHg 49%
22:00 +8°C° 0 mm 2 m/s 755 mmHg 51%
23:00 +8°C° 0 mm 2 m/s 755 mmHg 52%

23 Abril, Sexta-feira

Tempo Temperatura Precipitação Vento Pressão Humidade
00:00 +7°C° 0 mm 2 m/s 754 mmHg 54%
01:00 +7°C° 0 mm 2 m/s 754 mmHg 56%
02:00 +7°C° 0 mm 2 m/s 754 mmHg 57%
03:00 +6°C° 0 mm 2 m/s 754 mmHg 58%
04:00 +6°C° 0 mm 2 m/s 754 mmHg 59%
05:00 +7°C° 0 mm 2 m/s 754 mmHg 59%
06:00 +7°C° 0 mm 2 m/s 754 mmHg 59%
07:00 +7°C° 0 mm 2 m/s 754 mmHg 60%
08:00 +9°C° 0 mm 3 m/s 754 mmHg 55%
09:00 +10°C° 0 mm 3 m/s 754 mmHg 50%
10:00 +11°C° 0 mm 4 m/s 754 mmHg 45%
11:00 +12°C° 0 mm 4 m/s 754 mmHg 42%
12:00 +13°C° 0 mm 5 m/s 754 mmHg 39%
13:00 +14°C° 0 mm 5 m/s 753 mmHg 36%
14:00 +14°C° 0 mm 5 m/s 753 mmHg 38%
15:00 +14°C° 0 mm 4 m/s 753 mmHg 40%
16:00 +13°C° 0 mm 4 m/s 753 mmHg 42%
17:00 +13°C° 0 mm 3 m/s 753 mmHg 45%
18:00 +13°C° 0 mm 2 m/s 753 mmHg 48%
19:00 +13°C° 0 mm 1 m/s 753 mmHg 51%
20:00 +12°C° 0 mm 1 m/s 753 mmHg 53%
21:00 +10°C° 0 mm 2 m/s 753 mmHg 56%
22:00 +10°C° 0 mm 2 m/s 752 mmHg 58%
23:00 +10°C° 0 mm 2 m/s 752 mmHg 59%
Mostrar mais

Necessitamos do seu Consentimento

A Meteoprog e os seus Fornecedores de Serviços podem armazenar e aceder a dados pessoais como cookies, identificadores do dispositivo ou outras tecnologias semelhantes existentes no seu dispositivo e processar estes dados para personalizar conteúdos e anúncios, assim como funcionalidades nas redes sociais e análise de tráfego.

  • Armazenar e/ou aceder a informações no seu dispositivo

    Os cookies, identificadores do dispositivo ou outras informações podem ser armazenados ou acedidos no seu dispositivo, para os fins acima indicados.

  • Anúncios e conteúdos personalizados, medição de anúncios e conteúdos, dados sobre o público-alvo e desenvolvimento de produtos

    Os anúncios e os conteúdos podem ser personalizados com base num perfil. Podem ser adicionados dados adicionais para uma maior personalização dos anúncios e dos conteúdos. A eficácia dos anúncios e dos conteúdos pode ser medida. Podem ser obtidas informações sobre o público que visualizou os anúncios e os conteúdos. Estes dados podem ser usados para desenvolver ou melhorar sistemas, softwares ou a experiência do utilizador.

Ao clicar em "Eu concordo”, permitirá o uso de cookies, identificadores do dispositivo e web beacons mencionados ou outras tecnologias semelhantes. As configurações do navegador do seu dispositivo podem ser alteradas.

Para certos fins, podem ser invocados interesses legítimos ao invés de consentimento. Pode ler mais informação sobre este assunto na nossa Política de Privacidade e Cookies.